Location: Ward Pound Ridge Reservation
(41.2500°N, 73.6000°W)
Time: 04:55:05
(UTC-04:00)

Envisat - Pass Details

Date: 08 October 2017
Orbit: 764 x 766 km, 98.2° (Epoch: 19 October)

Event Time Altitude Azimuth Distance (km) Brightness Sun altitude
Exits shadow 19:01:12 - 80° (E) 2,375 4.9 -7.8°
Reaches altitude 10° 19:01:46 10° 74° (ENE) 2,305 4.9 -7.9°
Maximum altitude 19:03:08 11° 58° (ENE) 2,233 4.9 -8.1°
Drops below altitude 10° 19:04:30 10° 43° (NE) 2,308 5.1 -8.4°
Sets 19:08:40 0° 9° (N) 3,240 6.1 -9.2°
